[Date Prev][Date Next][Thread Prev][Thread Next] - [Date Index][Thread Index][Author Index]

2 Line ISS Keps 9-3



ISS 
1 25544U 98067A   03246.22542444  .00018156  00000-0  20965-3 0  4410
2 25544  51.6336 347.2774 0006353 199.4573 258.0337 15.61953965273195


----
Via the sarex mailing list at AMSAT.ORG courtesy of AMSAT-NA.
To unsubscribe, send "unsubscribe sarex" to Majordomo@amsat.org



AMSAT Top AMSAT Home